When you browse on this site, cookies collect data to enhance your experience and personalize the content and advertising you see.
Visit our Privacy Policy to learn more. By continuing to use the site, you agree to this use of cookies and data.
  • In France
  • List of Countries
  • For 7 days
  • Water Temperature
  • Weather Map
  • Weather Widgets
  • user-avatar
    Login

    Hourly Weather Kalemie

    Today, 5 June, Friday

    Time Temperature Precipitation Wind Pressure Humidity
    00:00 +23°C° 0 mm 1 mps 707 mmHg 90%
    01:00 +23°C° 0 mm 1 mps 706 mmHg 90%
    02:00 +23°C° 0 mm 1 mps 706 mmHg 91%
    03:00 +23°C° 0 mm 1 mps 706 mmHg 90%
    04:00 +23°C° 0 mm 1 mps 706 mmHg 89%
    05:00 +23°C° 0 mm 1 mps 706 mmHg 89%
    06:00 +24°C° 0 mm 2 mps 707 mmHg 85%
    07:00 +25°C° 0 mm 2 mps 707 mmHg 81%
    08:00 +25°C° 0 mm 2 mps 708 mmHg 77%
    09:00 +26°C° 0 mm 1 mps 708 mmHg 75%
    10:00 +27°C° 0 mm 1 mps 708 mmHg 73%
    11:00 +28°C° 0 mm 1 mps 708 mmHg 72%
    12:00 +30°C° 0 mm 1 mps 707 mmHg 65%
    13:00 +32°C° 0 mm 1 mps 707 mmHg 58%
    14:00 +33°C° 0 mm 1 mps 707 mmHg 51%
    15:00 +33°C° 0.1 mm 1 mps 707 mmHg 56%
    16:00 +32°C° 0.1 mm 1 mps 706 mmHg 61%
    17:00 +31°C° 0.1 mm 1 mps 706 mmHg 66%
    18:00 +29°C° 0.4 mm 1 mps 706 mmHg 74%
    19:00 +27°C° 0.4 mm 1 mps 706 mmHg 81%
    20:00 +23°C° 0.4 mm 0 mps 706 mmHg 89%
    21:00 +22°C° 0 mm 0 mps 706 mmHg 90%
    22:00 +22°C° 0 mm 0 mps 707 mmHg 91%
    23:00 +22°C° 0 mm 0 mps 707 mmHg 91%

    Tomorrow, 6 June, Saturday

    Time Temperature Precipitation Wind Pressure Humidity
    00:00 +24°C° 0.2 mm 1 mps 707 mmHg 91%
    01:00 +24°C° 0.2 mm 1 mps 707 mmHg 91%
    02:00 +24°C° 0.2 mm 1 mps 707 mmHg 91%
    03:00 +23°C° 0 mm 1 mps 706 mmHg 92%
    04:00 +23°C° 0 mm 1 mps 706 mmHg 94%
    05:00 +21°C° 0 mm 2 mps 706 mmHg 95%
    06:00 +23°C° 0 mm 2 mps 707 mmHg 91%
    07:00 +24°C° 0 mm 2 mps 707 mmHg 87%
    08:00 +25°C° 0 mm 2 mps 708 mmHg 82%
    09:00 +28°C° 0 mm 2 mps 708 mmHg 73%
    10:00 +30°C° 0 mm 2 mps 708 mmHg 63%
    11:00 +34°C° 0 mm 2 mps 708 mmHg 53%
    12:00 +34°C° 0 mm 2 mps 707 mmHg 51%
    13:00 +35°C° 0 mm 2 mps 707 mmHg 49%
    14:00 +36°C° 0 mm 2 mps 706 mmHg 47%
    15:00 +34°C° 0.2 mm 2 mps 706 mmHg 54%
    16:00 +32°C° 0.2 mm 2 mps 705 mmHg 61%
    17:00 +31°C° 0.2 mm 2 mps 705 mmHg 68%
    18:00 +29°C° 0.6 mm 2 mps 705 mmHg 75%
    19:00 +27°C° 0.6 mm 2 mps 705 mmHg 82%
    20:00 +25°C° 0.6 mm 2 mps 706 mmHg 88%
    21:00 +25°C° 0 mm 2 mps 706 mmHg 89%
    22:00 +24°C° 0 mm 2 mps 706 mmHg 90%
    23:00 +24°C° 0 mm 1 mps 706 mmHg 90%

    Day after tomorrow, 7 June, Sunday

    Time Temperature Precipitation Wind Pressure Humidity
    00:00 +23°C° 0.4 mm 1 mps 706 mmHg 92%
    01:00 +23°C° 0.4 mm 2 mps 706 mmHg 94%
    02:00 +23°C° 0.4 mm 2 mps 705 mmHg 96%
    03:00 +23°C° 0 mm 2 mps 705 mmHg 96%
    04:00 +23°C° 0 mm 2 mps 705 mmHg 95%
    05:00 +23°C° 0 mm 2 mps 705 mmHg 95%
    06:00 +24°C° 0 mm 3 mps 706 mmHg 91%
    07:00 +25°C° 0 mm 3 mps 706 mmHg 88%
    08:00 +26°C° 0 mm 3 mps 707 mmHg 84%
    09:00 +28°C° 0 mm 3 mps 707 mmHg 74%
    10:00 +30°C° 0 mm 4 mps 707 mmHg 64%
    11:00 +34°C° 0 mm 4 mps 707 mmHg 54%
    12:00 +34°C° 0 mm 3 mps 706 mmHg 53%
    13:00 +34°C° 0 mm 3 mps 706 mmHg 53%
    14:00 +35°C° 0 mm 2 mps 705 mmHg 52%
    15:00 +34°C° 0.4 mm 2 mps 705 mmHg 58%
    16:00 +32°C° 0.4 mm 2 mps 704 mmHg 65%
    17:00 +31°C° 0.4 mm 1 mps 704 mmHg 71%
    18:00 +29°C° 0.3 mm 1 mps 704 mmHg 75%
    19:00 +28°C° 0.3 mm 1 mps 704 mmHg 79%
    20:00 +26°C° 0.3 mm 1 mps 705 mmHg 83%
    21:00 +25°C° 0 mm 1 mps 705 mmHg 85%
    22:00 +25°C° 0 mm 1 mps 705 mmHg 87%
    23:00 +22°C° 0 mm 0 mps 705 mmHg 89%

    8 June, Monday

    Time Temperature Precipitation Wind Pressure Humidity
    00:00 +23°C° 1 mm 2 mps 705 mmHg 91%
    01:00 +22°C° 1 mm 3 mps 705 mmHg 93%
    02:00 +21°C° 1 mm 4 mps 705 mmHg 95%
    03:00 +21°C° 0.5 mm 3 mps 705 mmHg 94%
    04:00 +21°C° 0.5 mm 2 mps 705 mmHg 93%
    05:00 +20°C° 0.5 mm 2 mps 705 mmHg 92%
    06:00 +21°C° 0 mm 2 mps 705 mmHg 90%
    07:00 +21°C° 0 mm 3 mps 705 mmHg 89%
    08:00 +22°C° 0 mm 3 mps 705 mmHg 88%
    09:00 +26°C° 0 mm 3 mps 706 mmHg 78%
    10:00 +28°C° 0 mm 4 mps 706 mmHg 68%
    11:00 +32°C° 0 mm 4 mps 706 mmHg 58%
    12:00 +33°C° 0 mm 4 mps 705 mmHg 57%
    13:00 +33°C° 0 mm 3 mps 705 mmHg 55%
    14:00 +34°C° 0 mm 3 mps 704 mmHg 54%
    15:00 +32°C° 0.7 mm 2 mps 704 mmHg 62%
    16:00 +31°C° 0.7 mm 2 mps 704 mmHg 70%
    17:00 +30°C° 0.7 mm 2 mps 704 mmHg 77%
    18:00 +28°C° 0.9 mm 1 mps 704 mmHg 80%
    19:00 +27°C° 0.9 mm 1 mps 704 mmHg 84%
    20:00 +25°C° 0.9 mm 1 mps 705 mmHg 87%
    21:00 +25°C° 0 mm 1 mps 705 mmHg 88%
    22:00 +24°C° 0 mm 1 mps 705 mmHg 89%
    23:00 +24°C° 0 mm 1 mps 705 mmHg 90%

    9 June, Tuesday

    Time Temperature Precipitation Wind Pressure Humidity
    00:00 +24°C° 0.1 mm 1 mps 705 mmHg 91%
    01:00 +23°C° 0.1 mm 2 mps 705 mmHg 92%
    02:00 +23°C° 0.1 mm 2 mps 705 mmHg 93%
    03:00 +23°C° 0 mm 1 mps 705 mmHg 93%
    04:00 +23°C° 0 mm 1 mps 705 mmHg 94%
    05:00 +22°C° 0 mm 1 mps 705 mmHg 94%
    06:00 +23°C° 0 mm 1 mps 706 mmHg 91%
    07:00 +24°C° 0 mm 1 mps 706 mmHg 87%
    08:00 +25°C° 0 mm 1 mps 707 mmHg 84%
    09:00 +27°C° 0.2 mm 2 mps 707 mmHg 76%
    10:00 +29°C° 0.2 mm 2 mps 707 mmHg 68%
    11:00 +31°C° 0.2 mm 2 mps 707 mmHg 61%
    12:00 +31°C° 0.8 mm 1 mps 707 mmHg 61%
    13:00 +31°C° 0.8 mm 1 mps 706 mmHg 61%
    14:00 +31°C° 0.8 mm 1 mps 706 mmHg 61%
    15:00 +31°C° 0.2 mm 1 mps 705 mmHg 63%
    16:00 +31°C° 0.2 mm 1 mps 705 mmHg 65%
    17:00 +30°C° 0.2 mm 1 mps 705 mmHg 68%
    18:00 +28°C° 0.2 mm 1 mps 705 mmHg 74%
    19:00 +26°C° 0.2 mm 1 mps 705 mmHg 81%
    20:00 +24°C° 0.2 mm 2 mps 706 mmHg 88%
    21:00 +24°C° 0.2 mm 1 mps 706 mmHg 90%
    22:00 +23°C° 0.2 mm 1 mps 706 mmHg 92%
    23:00 +23°C° 0.2 mm 1 mps 706 mmHg 93%

    10 June, Wednesday

    Time Temperature Precipitation Wind Pressure Humidity
    00:00 +22°C° 0 mm 1 mps 705 mmHg 94%
    01:00 +22°C° 0 mm 1 mps 705 mmHg 95%
    02:00 +22°C° 0 mm 1 mps 705 mmHg 95%
    03:00 +21°C° 0 mm 1 mps 705 mmHg 95%
    04:00 +21°C° 0 mm 1 mps 705 mmHg 95%
    05:00 +19°C° 0 mm 0 mps 706 mmHg 95%
    06:00 +22°C° 0 mm 1 mps 706 mmHg 90%
    07:00 +24°C° 0 mm 1 mps 707 mmHg 86%
    08:00 +25°C° 0 mm 1 mps 707 mmHg 81%
    09:00 +28°C° 0.3 mm 1 mps 707 mmHg 73%
    10:00 +30°C° 0.3 mm 1 mps 707 mmHg 66%
    11:00 +32°C° 0.3 mm 1 mps 707 mmHg 59%
    12:00 +32°C° 0.8 mm 1 mps 707 mmHg 60%
    13:00 +31°C° 0.8 mm 1 mps 706 mmHg 61%
    14:00 +31°C° 0.8 mm 2 mps 706 mmHg 62%
    15:00 +30°C° 1.6 mm 2 mps 705 mmHg 70%
    16:00 +29°C° 1.6 mm 2 mps 705 mmHg 77%
    17:00 +27°C° 1.6 mm 2 mps 705 mmHg 85%
    18:00 +26°C° 0.2 mm 2 mps 705 mmHg 87%
    19:00 +25°C° 0.2 mm 2 mps 706 mmHg 89%
    20:00 +24°C° 0.2 mm 1 mps 706 mmHg 91%
    21:00 +24°C° 0 mm 1 mps 706 mmHg 92%
    22:00 +23°C° 0 mm 1 mps 706 mmHg 93%
    23:00 +22°C° 0 mm 1 mps 706 mmHg 94%
    Show more